Doylestown, PA

11:39 AM EDT on May 23, 2018 (GMT -0400)
Doylestown

Weather History for KDYL - January, 2014

Change the Weather History Date:

Thursday, January 16, 2014

  Actual Average (KTTN) Record (KTTN)
Temperature  
Mean Temperature 32 °F -  
Max Temperature 39 °F 34 °F 63 °F (1995)
Min Temperature 26 °F 20 °F -5 °F (1893)
Degree Days  
Heating Degree Days 32    
Moisture  
Dew Point 27 °F    
Average Humidity 80    
Maximum Humidity 92    
Minimum Humidity 60    
Precipitation  
Precipitation 0.01 in - - ()
Sea Level Pressure  
Sea Level Pressure 29.92 in    
Wind  
Wind Speed 5 mph (WNW)    
Max Wind Speed 9 mph    
Max Gust Speed -    
Visibility 10 miles    
Events Snow    
Averages and records for this station are not official NWS values.
T = Trace of Precipitation, MM = Missing Value Source: NWS Daily Summary

Daily Weather History Graph

Daily Weather History Graph

Search for Another Location

Airport or City:

Astronomy

Jan. 16, 2014 Rise Set
Actual Time 7:20 AM EST 4:59 PM EST
Civil Twilight 6:51 AM EST 5:29 PM EST
Nautical Twilight 6:17 AM EST 6:03 PM EST
Astronomical Twilight 5:45 AM EST 6:35 PM EST
Moon 5:49 PM EST (1/16) 7:12 AM EST (1/16)
Length of Visible Light 10h 38m
Length of Day
9h 39m
Full, 100% of the Moon is Illuminated
Jan 16
Full
Jan 24
Last Quarter
Jan 30
New
Feb 6
First Quarter
Feb 14
Full

Hourly Weather History & Observations

Time (EST) Temp. Windchill Dew Point Humidity Pressure Visibility Wind Dir Wind Speed Gust Speed Precip Events Conditions
12:54 AM 35.1 °F 32.2 °F 33.1 °F 92% 29.92 in 10.0 mi NW 3.5 mph - 0.00 in   Overcast
1:54 AM 35.1 °F 29.3 °F 30.0 °F 82% 29.93 in 10.0 mi NNW 6.9 mph - N/A   Overcast
2:54 AM 34.0 °F 27.2 °F 28.9 °F 82% 29.91 in 10.0 mi NW 8.1 mph - N/A   Overcast
3:54 AM 33.1 °F 26.9 °F 28.9 °F 85% 29.92 in 4.0 mi WNW 6.9 mph - 0.00 in Snow Light Snow
4:14 AM 32.0 °F 28.7 °F 28.9 °F 88% 29.90 in 8.0 mi West 3.5 mph - 0.00 in Snow Light Snow
4:24 AM 32.0 °F 26.4 °F 28.9 °F 88% 29.91 in 8.0 mi West 5.8 mph - 0.00 in Snow Light Snow
4:54 AM 32.0 °F 25.6 °F 28.9 °F 88% 29.93 in 10.0 mi WNW 6.9 mph - 0.00 in   Overcast
5:54 AM 32.0 °F 28.7 °F 28.9 °F 88% 29.92 in 10.0 mi NW 3.5 mph - 0.00 in   Overcast
6:54 AM 32.0 °F 27.5 °F 28.0 °F 85% 29.92 in 10.0 mi NW 4.6 mph - N/A   Overcast
7:54 AM 32.0 °F 25.6 °F 28.0 °F 85% 29.93 in 10.0 mi WNW 6.9 mph - N/A   Overcast
8:54 AM 30.9 °F 24.3 °F 28.0 °F 89% 29.98 in 7.0 mi West 6.9 mph - 0.00 in Snow Light Snow
9:54 AM 30.9 °F 25.2 °F 28.0 °F 89% 29.97 in 10.0 mi Variable 5.8 mph - 0.00 in   Overcast
10:54 AM 33.1 °F 26.9 °F 27.0 °F 78% 29.96 in 10.0 mi WNW 6.9 mph - 0.01 in   Overcast
11:54 AM 34.0 °F 27.2 °F 27.0 °F 75% 29.92 in 10.0 mi WNW 8.1 mph - N/A   Mostly Cloudy
12:16 PM 33.1 °F 25.5 °F 27.0 °F 78% 29.89 in 10.0 mi WNW 9.2 mph - N/A   Mostly Cloudy
12:54 PM 35.1 °F 29.3 °F 27.0 °F 72% 29.90 in 10.0 mi NW 6.9 mph - N/A   Overcast
1:54 PM 37.0 °F 31.0 °F 27.0 °F 67% 29.87 in 10.0 mi NW 8.1 mph - N/A   Overcast
2:54 PM 37.0 °F 34.5 °F 26.1 °F 65% 29.88 in 10.0 mi Variable 3.5 mph - N/A   Overcast
3:19 PM 39.0 °F 36.8 °F 26.1 °F 60% 29.86 in 10.0 mi North 3.5 mph - N/A   Mostly Cloudy
3:54 PM 37.0 °F - 25.0 °F 62% 29.89 in 10.0 mi Calm Calm - N/A   Scattered Clouds
4:54 PM 36.0 °F - 26.1 °F 67% 29.90 in 10.0 mi Calm Calm - N/A   Mostly Cloudy
5:54 PM 33.1 °F - 26.1 °F 75% 29.91 in 10.0 mi Calm Calm - N/A   Mostly Cloudy
6:54 PM 30.0 °F - 26.1 °F 85% 29.92 in 10.0 mi Calm Calm - N/A   Clear
7:54 PM 28.9 °F - 25.0 °F 85% 29.95 in 10.0 mi Calm Calm - N/A   Clear
8:54 PM 28.9 °F 25.2 °F 23.0 °F 78% 29.97 in 10.0 mi SW 3.5 mph - N/A   Scattered Clouds
9:54 PM 27.0 °F - 21.9 °F 81% 29.97 in 10.0 mi Calm Calm - N/A   Clear
10:54 PM 26.1 °F - 21.0 °F 81% 29.98 in 10.0 mi Calm Calm - N/A   Clear
11:54 PM 26.1 °F - 19.9 °F 78% 29.96 in 10.0 mi Calm Calm - N/A   Clear